FW4025 Weather Reports


time (UTC)temp
F
wind
direction
speed
knots
gust
knots
rain 1hr
in
rain 24hr
in
rain mn
in
humidity
%
barometer
mb
20260504234503 71 81 5.2 20.0 0.00 0.00 0.00 36 1008.2
20260504233001 71 91 7.8 21.7 0.00 0.00 0.00 40 1008.3
20260504231605 70 74 9.6 14.8 0.00 0.00 0.00 46 1008.4
20260504230100 71 119 8.7 21.7 0.00 0.00 0.00 42 1008.4
20260504224600 71 71 7.8 18.2 0.00 0.00 0.00 40 1008.6
20260504223058 71 108 10.4 18.2 0.00 0.00 0.00 46 1008.6
20260504221602 71 46 9.6 22.6 0.00 0.00 0.00 39 1008.7
20260504220054 70 79 10.4 16.5 0.00 0.00 0.00 44 1008.6
20260504214553 71 72 11.3 18.2 0.00 0.00 0.00 42 1008.8
20260504213050 71 97 12.2 15.6 0.00 0.00 0.00 43 1009.1
20260504211550 70 119 10.4 18.2 0.00 0.00 0.00 44 1009.0
20260504210101 70 50 7.8 13.9 0.00 0.00 0.00 40 1009.3
20260504204547 70 107 8.7 23.5 0.00 0.00 0.00 42 1009.3
20260504203040 71 98 7.8 14.8 0.00 0.00 0.00 40 1009.1
20260504201532 70 105 8.7 21.7 0.00 0.00 0.00 42 1009.4
20260504200029 69 67 5.2 14.8 0.00 0.00 0.00 39 1009.6
20260504194539 69 86 10.4 15.6 0.00 0.00 0.00 44 1009.4
20260504193023 69 84 11.3 17.4 0.00 0.00 0.00 44 1009.7
20260504191518 69 88 13.0 19.1 0.00 0.00 0.00 41 1009.7
20260504190013 68 98 8.7 15.6 0.00 0.00 0.00 42 1009.8
20260504184512 68 93 7.8 20.0 0.00 0.00 0.00 46 1009.9
20260504183006 67 67 12.2 18.2 0.00 0.00 0.00 45 1009.9
20260504181501 67 92 10.4 20.0 0.00 0.00 0.00 42 1009.9
20260504180155 66 69 11.3 18.2 0.00 0.00 0.00 45 1010.0
20260504174554 67 85 8.7 19.1 0.00 0.00 0.00 43 1009.8
20260504173059 66 94 11.3 19.1 0.00 0.00 0.00 44 1009.7
20260504171545 65 103 12.2 25.2 0.00 0.00 0.00 46 1009.8
20260504140112 47 317 1.7 5.2 0.00 0.00 0.00 88 1009.8
20260504081558 47 293 0.0 1.7 0.00 0.00 0.00 87 1008.3
20260504050104 54 254 0.9 3.5 0.00 0.00 0.00 79 1008.1
20260504044537 55 260 0.0 1.7 0.00 0.00 0.00 77 1008.1
20260504043037 56 311 0.0 0.9 0.00 0.00 0.00 75 1008.0
20260504041537 57 311 0.0 2.6 0.00 0.00 0.00 68 1008.0
20260504040040 58 267 0.0 1.7 0.00 0.00 0.00 67 1007.9
20260504034546 60 267 0.0 1.7 0.00 0.00 0.00 64 1007.3
20260504033035 61 267 0.0 1.7 0.00 0.00 0.00 62 1007.6
20260504031545 63 270 0.9 1.7 0.00 0.00 0.00 60 1007.6
20260504030040 65 327 0.9 2.6 0.00 0.00 0.00 56 1007.5
20260504024538 67 333 1.7 4.3 0.00 0.00 0.00 51 1007.6
20260504023033 69 279 1.7 3.5 0.00 0.00 0.00 49 1007.5
20260504021532 71 304 1.7 3.5 0.00 0.00 0.00 46 1007.5
20260504020038 72 275 0.0 2.6 0.00 0.00 0.00 43 1007.5
20260504014529 74 221 0.0 3.5 0.00 0.00 0.00 37 1007.5
20260504013029 75 215 2.6 7.0 0.00 0.00 0.00 36 1007.6
20260504011527 75 28 1.7 5.2 0.00 0.00 0.00 35 1007.8
20260504010025 75 144 1.7 3.5 0.00 0.00 0.00 37 1008.0
20260504004525 76 238 1.7 5.2 0.00 0.00 0.00 36 1008.0
20260504003022 77 307 0.9 3.5 0.00 0.00 0.00 35 1008.3
20260504001521 78 108 3.5 7.0 0.00 0.00 0.00 31 1008.5
20260504000021 78 220 0.9 5.2 0.00 0.00 0.00 30 1008.5